Location: Balsareny
(41.8670°N, 1.8830°E)
Time: 08:31:51
(UTC+02:00)

X-37B - Pass Details

Date: 21 June 2021
Orbit: 383 x 392 km, 45.0° (Epoch: 01 July)

Event Time Altitude Azimuth Distance (km) Brightness Sun altitude
Exits shadow 03:05:29 40° 34° (NE) 576 1.9 -22.6°
Drops below altitude 10° 03:08:02 10° 79° (ENE) 1,405 3.8 -22.5°
Sets 03:10:09 0° 86° (E) 2,259 4.8 -22.4°
